Home   Weather   Duisburg   Past weeks

Flag for Germany Past Weather in Duisburg, North Rhine-Westphalia, Germany — Yesterday and Last 2 Weeks

Now
54 °F

Sunny.


Feels Like: 53 °F
Forecast: 38 / 64 °F
Wind: 3 mph from North

Location: Duesseldorf

Current Time: Apr 29, 2017 at 3:26:25 pm

Latest Report: Apr 29, 2017 at 2:50 pm


Visibility: 10 mi

Pressure: 30.07 "Hg

Humidity: 44%

Dew Point: 32 °F

Location of DuisburgLocation

Past Weather in Duisburg — Graph

°F

Duisburg Temperature Yesterday

Maximum temperature yesterday: 54 °F (at 3:20 pm)
Minimum temperature yesterday: 34 °F (at 3:50 am)
Average temperature yesterday: 44 °F

High & Low Weather Summary for the Past Weeks

 TemperatureHumidityPressure
High59 °F (Apr 21, 3:20 pm)100% (Apr 26, 5:20 am)30.63 "Hg (Apr 26, 5:20 am)
Low27 °F (Apr 20, 4:50 am)30% (Apr 20, 5:20 pm)29.71 "Hg (Apr 25, 12:50 am)
Average45 °F68%30.14 "Hg
* Reported Apr 14 2:20 pm — Apr 29 2:20 pm, Duisburg, Weather by CustomWeather, © 2017

Note: Actual official high and low records may vary slightly from our data, if they occured in-between our weather recording intervals... More about our weather records

Advertising

Duisburg Weather History for the Previous 24 Hours

Scroll right to see more
 ConditionsComfort  
Time TempWeatherWind HumidityBarometerVisibility
2:20 pm
Sat, Apr 29
52 °FPassing clouds.5 mph44%30.07 "HgN/A
1:50 pm54 °FScattered clouds.6 mph44%30.07 "HgN/A
1:20 pm52 °FScattered clouds.5 mph44%30.07 "HgN/A
12:50 pm52 °FPartly sunny.3 mph47%30.09 "HgN/A
12:20 pm52 °FScattered clouds.3 mph47%30.09 "HgN/A
11:50 am48 °FScattered clouds.3 mph54%30.09 "HgN/A
11:20 am50 °FScattered clouds.2 mph54%30.09 "HgN/A
10:50 am50 °FPassing clouds.3 mph47%30.09 "HgN/A
10:20 am48 °FPassing clouds.2 mph62%30.07 "HgN/A
9:50 am48 °FPassing clouds.3 mph62%30.07 "HgN/A
9:20 am45 °FPassing clouds.3 mph76%30.07 "HgN/A
8:50 am43 °FPassing clouds.3 mph81%30.07 "HgN/A
8:20 am41 °FSunny.2 mph81%30.07 "Hg10 mi
7:50 am39 °FPassing clouds.5 mph87%30.07 "HgN/A
7:20 am37 °FSunny.5 mph87%30.07 "Hg10 mi
6:50 am37 °FSunny.5 mph87%30.07 "Hg10 mi
6:20 am36 °FSunny.2 mph93%30.07 "Hg10 mi
5:50 am36 °FClear.1 mph87%30.07 "Hg10 mi
5:20 am34 °FPassing clouds.1 mph93%30.07 "HgN/A
4:50 am34 °FPassing clouds.1 mph93%30.04 "HgN/A
4:20 am36 °FPassing clouds.2 mph93%30.04 "HgN/A
3:50 am39 °FPassing clouds.3 mph81%30.04 "HgN/A
3:20 am39 °FPassing clouds.5 mph81%30.04 "HgN/A
2:50 am41 °FPassing clouds.2 mph76%30.04 "HgN/A
2:20 am39 °FPassing clouds.5 mph87%30.04 "HgN/A
1:50 am41 °FPassing clouds.3 mph81%30.04 "HgN/A
1:20 am41 °FQuite cool.2 mph81%30.04 "HgN/A
12:50 am43 °FClear.6 mph76%30.04 "Hg10 mi
12:20 am43 °FClear.7 mph76%30.01 "Hg10 mi
11:50 pm
Fri, Apr 28
43 °FClear.7 mph76%30.01 "Hg10 mi
10:50 pm46 °FClear.8 mph66%30.01 "Hg10 mi
10:20 pm46 °FPassing clouds.6 mph66%30.01 "HgN/A
9:50 pm48 °FPassing clouds.8 mph62%29.98 "HgN/A
9:20 pm48 °FPassing clouds.7 mph66%29.98 "HgN/A
8:50 pm50 °FPartly cloudy.3 mph67%29.98 "HgN/A
8:20 pm50 °FSprinkles. Partly sunny.5 mph67%29.98 "HgN/A
7:50 pm50 °FSprinkles. Partly sunny.3 mph67%29.98 "HgN/A
7:20 pm50 °FPartly sunny.5 mph67%29.95 "HgN/A
6:50 pm52 °FBroken clouds.6 mph62%29.95 "HgN/A
6:20 pm52 °FPartly sunny.8 mph62%29.95 "HgN/A
5:50 pm52 °FScattered showers. Partly sunny.6 mph62%29.95 "HgN/A
5:20 pm50 °FScattered showers. Broken clouds.6 mph71%29.95 "HgN/A
4:50 pm50 °FScattered showers. Partly sunny.10 mph67%29.95 "HgN/A
4:20 pm52 °FScattered showers. Broken clouds.10 mph58%29.95 "HgN/A
3:50 pm54 °FScattered clouds.7 mph58%29.92 "HgN/A
3:20 pm54 °FScattered clouds.3 mph54%29.95 "HgN/A
Weather by CustomWeather, © 2017

See weather overviewHow to use our weather pages